Participated 1 time
in 1982
Antonio Bevilacqua, Italy
Tour de France 2026 starts from Barcelona, Spain in

Stats and Facts from
Tour de France.

2026   2025   2024   2023  2022  2021  2020  2019   2018  2017   2016   2015  2014  2013   2012   2011  2010   2009   2008   2007   2006   2005   2004   2003   2002   2001   2000   1999   1998   1997  1996   1995   1994   1993   1992  1991   1990   1989   1988   1987   1986   1985   1984   1983  1982  1981   1980   1979  1978  1977   1976  1975  1974  1973   1972   1971   1970  1969   1968   1967   1966   1965  1964  1963   1962   1961   1960   1959   1958   1957  1956   1955   1954   1953   1952  1951  1950  1949   1948  1947  1939   1938   1937   1936   1935   1934   1933  1932   1931   1930  1929   1928   1927   1926  1925  1924  1923   1922   1921   1920   1919  1914   1913   1912   1911   1910  1909   1908   1907   1906  1905  1904   1903 

Tourstats
Sitemap

After stage 21 - 2025:
 16451 starters.
  5464 different riders.
  689 teams.
  2398 stages.
  470 restdays.
  466506.50 km.
  5925 abandoned riders.

Click map for 2012 route.
Facts from Tour de France 2012
  |   Stages.  |   Stage winners.  |   Days in jerseys.  |   Teams.  |   All riders.  |   All riders by age.  |   All riders from.  |  

  |   Rookies.  |   Withdrawls.  |   Average speed.  |   GC.  |   Polka  |   Green  |   White  |   Summits. (In tour)  |   Miscellaneous.  |  

Stage 8 on July 8th. 2012
Pick a stage:  Pro  1  2  3  4  5  6  7  8  9  10  11  12  13  14  15  16  17  18  19  20  

After stage 8:    Bradley Wiggins    Fredrik Kessiakoff    Peter Sagan    Rein Taaramäe  
  BelfortPorrentruy | Dist: 157.50km. | Winner: Thibaut Pinot

Podium
4  Côte de Bondeval Jens Voigtafter20.00 km.

3  Côte du Passage de la Douleur Jens Voigtafter32.00 km.

2  Maison Rouge Blel Kadriafter50.00 km.

2  Côte de Saignelégier Jérémy Royafter73.00 km.

2  Côte de Saulcy Fredrik Kessiakoffafter97.00 km.

2  Côte de la Caquerelle Fredrik Kessiakoffafter130.50 km.

1  Col de la Croix Thibaut Pinotafter141.50 km.


Average speed for all riders in stage:  38,121 km./hr.

1
 Thibaut Pinot  FDJ – Big Mat03h 56' 10"=40,014  km/h

2
 Cadel Evans  BMC03h 56' 36"+  00:00:26 =39,941  km/h

3
 Tony Gallopin  Radioshack–Nissan03h 56' 36"+  00:00:26 =39,941  km/h

4  Bradley Wiggins  Sky Procycling03h 56' 36"+  00:00:26 =39,941  km/h

5  Vincenzo Nibali  Liquigas-Cannondale03h 56' 36"+  00:00:26 =39,941  km/h

6  Jurgen Van Den Broeck  Lotto-Belisol03h 56' 36"+  00:00:26 =39,941  km/h

7  Chris Froome  Sky Procycling03h 56' 36"+  00:00:26 =39,941  km/h

8  Denis Menchov  Katusha03h 56' 36"+  00:00:26 =39,941  km/h

9  Haimar  Zubeldía  Radioshack–Nissan03h 56' 36"+  00:00:26 =39,941  km/h

10  Fränk Schleck  Radioshack–Nissan03h 56' 40"+  00:00:30 =39,930  km/h

11  Christopher Horner  Radioshack–Nissan03h 56' 40"+  00:00:30 =39,930  km/h

12  Fredrik Kessiakoff  Astana Pro Team03h 56' 57"+  00:00:47 =39,882  km/h

13  Nicolas Roche  AG2R La Mondiale03h 57' 35"+  00:01:25 =39,776  km/h

14  Chris Anker Sørensen  Saxo Bank-Tinkoff Bank03h 57' 35"+  00:01:25 =39,776  km/h

15  Maxime Monfort  Radioshack–Nissan03h 57' 35"+  00:01:25 =39,776  km/h

16  Pierre Rolland  Europcar03h 57' 35"+  00:01:25 =39,776  km/h

17  Michele Scarponi  Lampre-ISD03h 57' 35"+  00:01:25 =39,776  km/h

18  Tejay Van Garderen  BMC03h 57' 35"+  00:01:25 =39,776  km/h

19  Rui Costa  Movistar03h 57' 35"+  00:01:25 =39,776  km/h

20  Levi Leipheimer  Omega Pharma – Quick Step03h 57' 35"+  00:01:25 =39,776  km/h

21  Janez Brajkovič  Astana Pro Team03h 57' 35"+  00:01:25 =39,776  km/h

22  Christian Vandevelde  Garmin-Sharp-Barracuda03h 57' 35"+  00:01:25 =39,776  km/h

23  Jelle Vanendert  Lotto-Belisol03h 57' 35"+  00:01:25 =39,776  km/h

24  Ivan Basso  Liquigas-Cannondale03h 57' 35"+  00:01:25 =39,776  km/h

25  Rémy Di Grégorio  Cofidis Le Credit En Ligne03h 58' 31"+  00:02:21 =39,620  km/h

26  Rein Taaramäe  Cofidis Le Credit En Ligne03h 58' 31"+  00:02:21 =39,620  km/h

27  Laurens Ten Dam  Rabobank03h 58' 31"+  00:02:21 =39,620  km/h

28  Peter Velits  Omega Pharma – Quick Step03h 58' 31"+  00:02:21 =39,620  km/h

29  Gorka Izagirre  Euskaltel-Euskadi03h 58' 31"+  00:02:21 =39,620  km/h

30  Andréas  Klöden  Radioshack–Nissan03h 58' 31"+  00:02:21 =39,620  km/h

31  Alejandro Valverde  Movistar03h 58' 31"+  00:02:21 =39,620  km/h

32  David Moncoutié  Cofidis Le Credit En Ligne03h 58' 31"+  00:02:21 =39,620  km/h

33  Blel Kadri  AG2R La Mondiale03h 58' 31"+  00:02:21 =39,620  km/h

34  Jérôme Coppel  Saur-Sojasun03h 58' 31"+  00:02:21 =39,620  km/h

35  Giampaolo Caruso  Katusha03h 58' 31"+  00:02:21 =39,620  km/h

36  Dimitiri Fofonov  Astana Pro Team03h 58' 31"+  00:02:21 =39,620  km/h

37  Alexandre Vinokourov  Astana Pro Team03h 58' 31"+  00:02:21 =39,620  km/h

38  Juan José Cobo  Movistar03h 58' 31"+  00:02:21 =39,620  km/h

39  Robert Kišerlovski  Astana Pro Team03h 58' 31"+  00:02:21 =39,620  km/h

40  Arthur Vichot  FDJ – Big Mat04h 01' 08"+  00:04:58 =39,190  km/h

41  Davide Malacarne  Europcar04h 01' 08"+  00:04:58 =39,190  km/h

42  Sylvain Chavanel  Omega Pharma – Quick Step04h 01' 08"+  00:04:58 =39,190  km/h

43  Guillaume Levarlet  Saur-Sojasun04h 01' 08"+  00:04:58 =39,190  km/h

44  Egoi Martínez  Euskaltel-Euskadi04h 01' 08"+  00:04:58 =39,190  km/h

45  Stuart O'Grady  Orica-GreenEDGE04h 01' 08"+  00:04:58 =39,190  km/h

46  Andrey Kashechkin  Astana Pro Team04h 01' 08"+  00:04:58 =39,190  km/h

47  Richie Porte  Sky Procycling04h 01' 08"+  00:04:58 =39,190  km/h

48  Pierrick  Fédrigo  FDJ – Big Mat04h 01' 08"+  00:04:58 =39,190  km/h

49  Dominik Nerz  Liquigas-Cannondale04h 01' 08"+  00:04:58 =39,190  km/h

50  Kevin De Weert  Omega Pharma – Quick Step04h 01' 08"+  00:04:58 =39,190  km/h

51  Simon Gerrans  Orica-GreenEDGE04h 01' 08"+  00:04:58 =39,190  km/h

52  Sandy Casar  FDJ – Big Mat04h 01' 08"+  00:04:58 =39,190  km/h

53  Cyril Gautier  Europcar04h 01' 08"+  00:04:58 =39,190  km/h

54  Thomas  Voeckler  Europcar04h 01' 08"+  00:04:58 =39,190  km/h

55  Peter Sagan  Liquigas-Cannondale04h 01' 08"+  00:04:58 =39,190  km/h

56  Simone Stortoni  Lampre-ISD04h 01' 08"+  00:04:58 =39,190  km/h

57  Yury  Trofimov  Katusha04h 01' 08"+  00:04:58 =39,190  km/h

58  Michael Rogers  Sky Procycling04h 01' 08"+  00:04:58 =39,190  km/h

59  Sérgio Paulinho  Saxo Bank-Tinkoff Bank04h 01' 08"+  00:04:58 =39,190  km/h

60  Johnny Hoogerland  Vacansoleil-DCM04h 01' 08"+  00:04:58 =39,190  km/h

61  Eduard Vorganov  Katusha04h 01' 08"+  00:04:58 =39,190  km/h

62  Christophe Kern  Europcar04h 01' 08"+  00:04:58 =39,190  km/h

63  Marco Marcato  Vacansoleil-DCM04h 03' 35"+  00:07:25 =38,796  km/h

64  Dan Martin  Garmin-Sharp-Barracuda04h 03' 35"+  00:07:25 =38,796  km/h

65  Danilo Hondo  Lampre-ISD04h 03' 35"+  00:07:25 =38,796  km/h

66  Sébastien Minard  AG2R La Mondiale04h 03' 35"+  00:07:25 =38,796  km/h

67  Maxime Bouet  AG2R La Mondiale04h 03' 35"+  00:07:25 =38,796  km/h

68  Vladimir Karpets  Movistar04h 03' 35"+  00:07:25 =38,796  km/h

69  Anders Lund  Saxo Bank-Tinkoff Bank04h 03' 35"+  00:07:25 =38,796  km/h

70  Yaroslav Popovych  Radioshack–Nissan04h 03' 35"+  00:07:25 =38,796  km/h

71  Sylwester Szmyd  Liquigas-Cannondale04h 03' 35"+  00:07:25 =38,796  km/h

72  Michael Albasini  Orica-GreenEDGE04h 05' 17"+  00:09:07 =38,527  km/h

73  Federico Canuti  Liquigas-Cannondale04h 06' 27"+  00:10:17 =38,344  km/h

74  George Hincapie  BMC04h 06' 27"+  00:10:17 =38,344  km/h

75  Michael Schär  BMC04h 06' 27"+  00:10:17 =38,344  km/h

76  Bauke Mollema  Rabobank04h 06' 27"+  00:10:17 =38,344  km/h

77  Edvald Boasson Hagen  Sky Procycling04h 06' 27"+  00:10:17 =38,344  km/h

78  Kristjan Koren  Liquigas-Cannondale04h 06' 27"+  00:10:17 =38,344  km/h

79  Jens Voigt  Radioshack–Nissan04h 08' 29"+  00:12:19 =38,031  km/h

80  Baden Cooke  Orica-GreenEDGE04h 08' 29"+  00:12:19 =38,031  km/h

81  Michael Mørkøv  Saxo Bank-Tinkoff Bank04h 08' 29"+  00:12:19 =38,031  km/h

82  Manuel Quinziato  BMC04h 08' 29"+  00:12:19 =38,031  km/h

83  Luca Paolini  Katusha04h 08' 29"+  00:12:19 =38,031  km/h

84  Romain Zingle  Cofidis Le Credit En Ligne04h 08' 29"+  00:12:19 =38,031  km/h

85  Koen De Kort  Argos–Shimano04h 08' 29"+  00:12:19 =38,031  km/h

86  Fabrice Jeandesboz  Saur-Sojasun04h 08' 29"+  00:12:19 =38,031  km/h

87  Tony Martin  Omega Pharma – Quick Step04h 08' 29"+  00:12:19 =38,031  km/h

88  David Millar  Garmin-Sharp-Barracuda04h 08' 29"+  00:12:19 =38,031  km/h

89  Lars Bak  Lotto-Belisol04h 08' 29"+  00:12:19 =38,031  km/h

90  Fabian Cancellara  Radioshack–Nissan04h 08' 29"+  00:12:19 =38,031  km/h

91  Rob Ruijgh  Vacansoleil-DCM04h 08' 29"+  00:12:19 =38,031  km/h

92  David Zabriskie  Garmin-Sharp-Barracuda04h 08' 29"+  00:12:19 =38,031  km/h

93  Mikaël Cherel  AG2R La Mondiale04h 08' 29"+  00:12:19 =38,031  km/h

94  Jean-Christophe Peraud  AG2R La Mondiale04h 08' 29"+  00:12:19 =38,031  km/h

95  Jérémy Roy  FDJ – Big Mat04h 08' 29"+  00:12:19 =38,031  km/h

96  Amaël Moinard  BMC04h 08' 29"+  00:12:19 =38,031  km/h

97  Christian Knees  Sky Procycling04h 08' 29"+  00:12:19 =38,031  km/h

98  Sebastian Langeveld  Orica-GreenEDGE04h 08' 29"+  00:12:19 =38,031  km/h

99  Steven Kruijswijk  Rabobank04h 08' 29"+  00:12:19 =38,031  km/h

100  Rafael Valls Ferri  Vacansoleil-DCM04h 10' 07"+  00:13:57 =37,782  km/h

101  Vasil Kiryienka  Movistar04h 10' 07"+  00:13:57 =37,782  km/h

102  Alessandro Vanotti  Liquigas-Cannondale04h 10' 07"+  00:13:57 =37,782  km/h

103  Grega Bole  Lampre-ISD04h 12' 40"+  00:16:30 =37,401  km/h

104  Marco Marzano  Lampre-ISD04h 12' 40"+  00:16:30 =37,401  km/h

105  Pieter Weening  Orica-GreenEDGE04h 12' 40"+  00:16:30 =37,401  km/h

106  Andriy Grivko  Astana Pro Team04h 12' 51"+  00:16:41 =37,374  km/h

107  Patrick Gretsch  Argos–Shimano04h 12' 51"+  00:16:41 =37,374  km/h

108  Marcel Sieberg  Lotto-Belisol04h 12' 51"+  00:16:41 =37,374  km/h

109  Giovanni Bernaudeau  Europcar04h 12' 51"+  00:16:41 =37,374  km/h

110  Jorge Azanza  Euskaltel-Euskadi04h 12' 51"+  00:16:41 =37,374  km/h

111  Nicki Sørensen  Saxo Bank-Tinkoff Bank04h 12' 51"+  00:16:41 =37,374  km/h

112  Francis De Greef  Lotto-Belisol04h 12' 51"+  00:16:41 =37,374  km/h

113  Nick Nuyens  Saxo Bank-Tinkoff Bank04h 12' 51"+  00:16:41 =37,374  km/h

114  Ruben Perez  Euskaltel-Euskadi04h 12' 51"+  00:16:41 =37,374  km/h

115  Daryl Impey  Orica-GreenEDGE04h 12' 51"+  00:16:41 =37,374  km/h

116  Robert Gesink  Rabobank04h 12' 51"+  00:16:41 =37,374  km/h

117  Alessandro Petacchi  Lampre-ISD04h 12' 51"+  00:16:41 =37,374  km/h

118  Pablo Urtasun  Euskaltel-Euskadi04h 12' 51"+  00:16:41 =37,374  km/h

119  Nicolas Edet  Cofidis Le Credit En Ligne04h 12' 51"+  00:16:41 =37,374  km/h

120  Adam Hansen  Lotto-Belisol04h 12' 51"+  00:16:41 =37,374  km/h

121  Jürgen Roelandts  Lotto-Belisol04h 12' 51"+  00:16:41 =37,374  km/h

122  Matthieu Sprick  Argos–Shimano04h 12' 51"+  00:16:41 =37,374  km/h

123  Christophe Riblon  AG2R La Mondiale04h 12' 51"+  00:16:41 =37,374  km/h

124  Stephen Cummings  BMC04h 12' 51"+  00:16:41 =37,374  km/h

125  Johan Vansummeren  Garmin-Sharp-Barracuda04h 12' 51"+  00:16:41 =37,374  km/h

126  Joan Horrach  Katusha04h 12' 51"+  00:16:41 =37,374  km/h

127  Cédric Pineau  FDJ – Big Mat04h 12' 51"+  00:16:41 =37,374  km/h

128  Julien Fouchard  Cofidis Le Credit En Ligne04h 12' 51"+  00:16:41 =37,374  km/h

129  Yukiya  Arashiro  Europcar04h 12' 51"+  00:16:41 =37,374  km/h

130  Cyril Lemoine  Saur-Sojasun04h 12' 51"+  00:16:41 =37,374  km/h

131  Matthew Goss  Orica-GreenEDGE04h 12' 51"+  00:16:41 =37,374  km/h

132  Bert Grabsch  Omega Pharma – Quick Step04h 12' 51"+  00:16:41 =37,374  km/h

133  Gregory Henderson  Lotto-Belisol04h 12' 51"+  00:16:41 =37,374  km/h

134  Martin Velits  Omega Pharma – Quick Step04h 12' 51"+  00:16:41 =37,374  km/h

135  Dries Devenyns  Omega Pharma – Quick Step04h 12' 51"+  00:16:41 =37,374  km/h

136  Marcus Burghardt  BMC04h 12' 51"+  00:16:41 =37,374  km/h

137  Philippe Gilbert  BMC04h 12' 51"+  00:16:41 =37,374  km/h

138  Luis León Sánchez  Rabobank04h 12' 51"+  00:16:41 =37,374  km/h

139  Yohann Gène  Europcar04h 12' 51"+  00:16:41 =37,374  km/h

140  Brett Lancaster  Orica-GreenEDGE04h 12' 51"+  00:16:41 =37,374  km/h

141  Jérôme Pineau  Omega Pharma – Quick Step04h 12' 51"+  00:16:41 =37,374  km/h

142  Kris Boeckmans  Vacansoleil-DCM04h 12' 51"+  00:16:41 =37,374  km/h

143  Brice Feillu  Saur-Sojasun04h 12' 51"+  00:16:41 =37,374  km/h

144  Jean-Marc Marino  Saur-Sojasun04h 12' 51"+  00:16:41 =37,374  km/h

145  Anthony Roux  FDJ – Big Mat04h 15' 41"+  00:19:31 =36,960  km/h

146  Daniel Oss  Liquigas-Cannondale04h 18' 06"+  00:21:56 =36,614  km/h

147  Sébastien Hinault  AG2R La Mondiale04h 18' 29"+  00:22:19 =36,559  km/h

148  Mark Cavendish  Sky Procycling04h 18' 29"+  00:22:19 =36,559  km/h

149  Bernhard Eisel  Sky Procycling04h 18' 29"+  00:22:19 =36,559  km/h

150  Matthew Lloyd  Lampre-ISD04h 18' 29"+  00:22:19 =36,559  km/h

151  Jonathan Cantwell  Saxo Bank-Tinkoff Bank04h 18' 29"+  00:22:19 =36,559  km/h

152  Lieuwe Westra  Vacansoleil-DCM04h 18' 29"+  00:22:19 =36,559  km/h

153  Luis Angel Mate  Cofidis Le Credit En Ligne04h 18' 29"+  00:22:19 =36,559  km/h

154  Roy Curvers  Argos–Shimano04h 18' 29"+  00:22:19 =36,559  km/h

155  Aliaksandr Kuchynski  Katusha04h 18' 29"+  00:22:19 =36,559  km/h

156  Borut Božič  Astana Pro Team04h 18' 29"+  00:22:19 =36,559  km/h

157  Albert Timmer  Argos–Shimano04h 18' 29"+  00:22:19 =36,559  km/h

158  Juan José Haedo  Saxo Bank-Tinkoff Bank04h 18' 29"+  00:22:19 =36,559  km/h

159  Yann Huguet  Argos–Shimano04h 18' 29"+  00:22:19 =36,559  km/h

160  Karsten Kroon  Saxo Bank-Tinkoff Bank04h 18' 29"+  00:22:19 =36,559  km/h

161  Yauheni Hutarovich  FDJ – Big Mat04h 19' 41"+  00:23:31 =36,390  km/h

162  Kenny van Hummel  Vacansoleil-DCM04h 19' 41"+  00:23:31 =36,390  km/h

163  Maxim Iglinskiy  Astana Pro Team04h 19' 41"+  00:23:31 =36,390  km/h

164  Yuriy Krivtsov  Lampre-ISD04h 19' 41"+  00:23:31 =36,390  km/h

165  Tyler Farrar  Garmin-Sharp-Barracuda04h 19' 41"+  00:23:31 =36,390  km/h

166  Julien Simon  Saur-Sojasun04h 19' 41"+  00:23:31 =36,390  km/h

167  André Greipel  Lotto-Belisol04h 19' 41"+  00:23:31 =36,390  km/h

168  Bram Tankink  Rabobank04h 19' 41"+  00:23:31 =36,390  km/h

169  Gustav-Erik Larsson  Vacansoleil-DCM04h 19' 41"+  00:23:31 =36,390  km/h

170  Jan Ghyselinck  Cofidis Le Credit En Ligne04h 19' 41"+  00:23:31 =36,390  km/h

171  Rubén Plaza  Movistar04h 19' 41"+  00:23:31 =36,390  km/h

172  Tom Veelers  Argos–Shimano04h 19' 41"+  00:23:31 =36,390  km/h

173  Jimmy Engoulvent  Saur-Sojasun04h 19' 41"+  00:23:31 =36,390  km/h

174  Mark Renshaw  Rabobank04h 19' 41"+  00:23:31 =36,390  km/h

175  Samuel Dumoulin  Cofidis Le Credit En Ligne04h 19' 41"+  00:23:31 =36,390  km/h

176  Vincent Jérôme  Europcar04h 19' 41"+  00:23:31 =36,390  km/h

177  Matthieu Ladagnous  FDJ – Big Mat04h 19' 41"+  00:23:31 =36,390  km/h

178  Vladimir Gusev  Katusha04h 19' 41"+  00:23:31 =36,390  km/h


Withdrawls: 3
 RiderTeamReason
214   Johannes Fröhlinger Argos–ShimanoDid not start
31   Samuel Sanchez Euskaltel-EuskadiDid not finish
39   Gorka Verdugo Euskaltel-EuskadiDid not finish
Todays birthdays.

1884 • Vincenzo Borgarello
1889 • Emile Bonnefoi
1889 • Auguste Denizot
1890 • Maurice Petit
1904 • Pierino Ferioli
1905 • Vincent Carrara
1910 • Antoon Van Schendel
1925 • Georges Meunier
1945 • Gérard Besnard
1950 • Wim Kelleners
1960 • Ivan Ivanov
1960 • Pierre-Henri Menthéour
1962 • Giovanni Bottoia
1964 • Flavio Giupponi
1974 • Benoit Salmon
1977 • Iñigo Landaluze
1977 • Svein Tuft
1979 • Rubens Bertogliati
1985 • Matthew Busche

 

Optimized for Chrome - Edge
and Opera browsers.